Location: Helsinki
(60.1699°N, 24.9384°E)
Time: 21:29:18
(UTC+02:00)

Transit 2A Rocket - Pass Details

Date: 21 September 2023
Orbit: 593 x 903 km, 66.7° (Epoch: 29 November)

Event Time Altitude Azimuth Distance (km) Brightness Sun altitude
Rises 21:48:59 0° 292° (WNW) 3,152 9.7 -17.7°
Reaches altitude 10° 21:51:34 10° 299° (WNW) 2,177 8.6 -17.9°
Maximum altitude 21:56:12 40° 10° (N) 980 5.7 -18.4°
Enters shadow 21:58:56 20° 70° (ENE) 1,485 6.2 -18.7°
Drops below altitude 10° 22:00:29 10° 81° (E) 2,016 - -18.8°
Sets 22:02:48 0° 89° (E) 2,891 - -19.1°
